Weather History for Alice, TX

Change the Weather History Date:

Thursday, August 15, 2013

  Actual Average Record
Temperature  
Mean Temperature 86 °F -  
Max Temperature 100 °F 95 °F 104 °F (2012)
Min Temperature 72 °F 73 °F 66 °F (2004)
Cooling Degree Days 20    
Growing Degree Days 36 (Base 50)    
Moisture  
Dew Point 71 °F    
Average Humidity 67    
Maximum Humidity 97    
Minimum Humidity 33    
Precipitation  
Precipitation 0.00 in - - ()
Sea Level Pressure  
Sea Level Pressure 29.92 in    
Wind  
Wind Speed 8 mph (SSE)    
Max Wind Speed 15 mph    
Max Gust Speed 21 mph    
Visibility 10 miles    
Events      
Averages and records for this station are not official NWS values.
T = Trace of Precipitation, MM = Missing Value Source: NWS Daily Summary

Daily Weather History Graph

Daily Weather History Graph

Search for Another Location

Airport:

Trip Planner

Search our weather history database for the weather conditions in past years. The results will help you decide how hot, cold, wet, or windy it might be!

Date:

Astronomy

Aug. 15, 2013 Rise Set
Actual Time 7:02 AM CDT 8:09 PM CDT
Civil Twilight 6:38 AM CDT 8:34 PM CDT
Nautical Twilight 6:09 AM CDT 9:03 PM CDT
Astronomical Twilight 5:39 AM CDT 9:33 PM CDT
Moon 3:19 PM CDT (8/15) 1:20 AM CDT (8/15)
Length of Visible Light 13h 56m
Length of Day
13h 07m
Waxing Gibbous, 64% of the Moon is Illuminated
Aug 15
Waxing Gibbous
Aug 20
Full
Aug 28
Last Quarter
Sep 5
New
Sep 12
First Quarter

Hourly Weather History & Observations

Time (CDT) Temp. Heat Index Dew Point Humidity Pressure Visibility Wind Dir Wind Speed Gust Speed Precip Events Conditions
12:53 AM 79.0 °F - 73.0 °F 82% 29.93 in 10.0 mi South 9.2 mph - N/A   Clear
1:53 AM 78.1 °F - 73.9 °F 87% 29.93 in 10.0 mi South 8.1 mph - N/A   Clear
2:53 AM 77.0 °F - 73.9 °F 90% 29.91 in 10.0 mi SSW 11.5 mph - N/A   Clear
3:53 AM 77.0 °F - 73.0 °F 88% 29.90 in 10.0 mi SSW 11.5 mph - N/A   Clear
4:53 AM 75.9 °F - 73.0 °F 91% 29.91 in 10.0 mi SSW 6.9 mph - N/A   Clear
5:53 AM 73.0 °F - 71.1 °F 93% 29.92 in 10.0 mi SE 4.6 mph - N/A   Clear
6:53 AM 72.0 °F - 70.0 °F 93% 29.94 in 10.0 mi ENE 3.5 mph - N/A   Clear
7:53 AM 72.0 °F - 71.1 °F 97% 29.96 in 10.0 mi Calm Calm - N/A   Clear
8:53 AM 77.0 °F - 73.0 °F 88% 29.97 in 10.0 mi Calm Calm - N/A   Clear
9:53 AM 84.0 °F 91.9 °F 75.0 °F 74% 29.97 in 10.0 mi SW 8.1 mph - N/A   Clear
10:53 AM 87.1 °F 94.5 °F 73.0 °F 63% 29.97 in 10.0 mi South 8.1 mph - N/A   Partly Cloudy
11:53 AM 91.9 °F 99.5 °F 72.0 °F 52% 29.96 in 10.0 mi Variable 6.9 mph - N/A   Clear
12:53 PM 93.0 °F 97.9 °F 69.1 °F 45% 29.94 in 10.0 mi West 5.8 mph - N/A   Clear
1:53 PM 95.0 °F 99.5 °F 68.0 °F 41% 29.92 in 10.0 mi West 5.8 mph - N/A   Clear
2:53 PM 98.1 °F 101.2 °F 64.9 °F 34% 29.90 in 10.0 mi South 4.6 mph - N/A   Clear
3:53 PM 98.1 °F 100.7 °F 64.0 °F 33% 29.88 in 10.0 mi SE 4.6 mph - N/A   Clear
4:53 PM 98.1 °F 102.4 °F 66.9 °F 36% 29.87 in 10.0 mi East 5.8 mph - N/A   Mostly Cloudy
5:53 PM 99.0 °F 107.0 °F 71.1 °F 40% 29.86 in 10.0 mi East 12.7 mph 20.7 mph N/A   Partly Cloudy
6:53 PM 93.0 °F 99.0 °F 70.0 °F 47% 29.88 in 10.0 mi SE 15.0 mph - N/A   Clear
7:53 PM 88.0 °F 92.9 °F 70.0 °F 55% 29.90 in 10.0 mi SE 15.0 mph - N/A   Clear
8:53 PM 84.0 °F 89.0 °F 71.1 °F 65% 29.93 in 10.0 mi SE 10.4 mph - N/A   Clear
9:53 PM 82.9 °F 89.4 °F 73.9 °F 74% 29.94 in 10.0 mi SE 11.5 mph - N/A   Clear
10:53 PM 82.0 °F 88.6 °F 75.0 °F 79% 29.96 in 10.0 mi SE 8.1 mph - N/A   Clear